|
2022 QH8 |
| ephemeris |
date |
magn |
radius |
delta |
ra |
dec |
elong |
phase |
| Today | 5 Sep 2026 | 26.1 | 0.799 AU | 1.268 AU | 08h18m | +15°35' | 39.0° | 52.6° |
2022 QH8 - 2026-09-05
astro.vanbuitenen.nl
The interactive orbit chart above shows the body's path through the solar system and its position at the given date.
Green and blue lines are shown perpendicular to the ecliptic plane: Green if the path is above the ecliptic plane, blue if it is below.
(Left-click and drag to rotate the view; Right-click and drag to move the view; Use scroll wheel to zoom in our out.)
The orbital elements of 2022 QH8 are:
e (Eccentricity) : 0.6758613
a (Semimajor axis) : 2.4450142
i (Inclination) : 6.36854
Ω (Longitude of ascending node) : 171.41700
ω (Argument of perihelion) : 247.88049
M (Mean anomaly) : 338.92389
Epoch : 2026 Jun 09
L (Longitude of perihelion) : 239.17350
B (Latitude of perihelion) : -5.89809
P (Orbital period in years) : 3.82
The light curve chart below shows the estimated development of the minor planet's magnitude.
The all-sky chart below shows the path of the minor planet over the same period as the light curve. The current position is marked yellow.
The following chart shows the path of the minor planet in the next few days. The field of view is optimized for (~10x50) binoculars and finderscopes.
Ephemerides:
Date Time RA (2000) DEC (2000) delta radius elong phase PA magn
2026-09-05 00:00 UT 08 18 26.8 +15 35 59 1.268 0.799 39.0 52.6 278 26.1
2026-09-05 09:58 UT 08 20 27.7 +15 29 08 1.273 0.800 38.9 52.4 278 26.1
2026-09-06 00:00 UT 08 23 17.0 +15 19 25 1.278 0.801 38.8 52.0 279 26.1
2026-09-07 00:00 UT 08 28 03.8 +15 02 39 1.289 0.803 38.6 51.5 279 26.1
2026-09-08 00:00 UT 08 32 47.4 +14 45 43 1.299 0.806 38.4 50.9 279 26.2
2026-09-09 00:00 UT 08 37 27.7 +14 28 36 1.309 0.809 38.2 50.3 280 26.2
2026-09-10 00:00 UT 08 42 04.7 +14 11 21 1.319 0.812 38.0 49.7 280 26.2
2026-09-11 00:00 UT 08 46 38.5 +13 53 58 1.329 0.816 37.8 49.1 280 26.2
2026-09-12 00:00 UT 08 51 09.0 +13 36 27 1.340 0.820 37.6 48.6 281 26.2
Terminology:
delta: distance between minor planet and earth in AU
radius: distance between minor planet and sun in AU
magn: magnitude (brightness) estimate
ra: right ascension in hours (24h = 360deg)
dec: declination in degrees
elong: elongation in degrees (angle sun-earth-minor planet)
phase: phase angle in degrees (angle sun-minor planet-earth)
AU: Astronomical Unit (mean distance between earth and sun: 149597870.7 km
Orbital elements provided by the MPC (Minor Planet Center).
Calculations by a modified version of AAPlus, a C# implementation of the AA+ project by PJ Naughter from the algorithms presented in the book "Astronomical Algorithms" by Jean Meeus.
NGC2000 dso catalog and star labels from VizieR as provided by the Strasbourg astronomical Data Center.
Tycho2 catalog from the ESO archive.